Showing default

IRIDIUM 151, 43074

Orbit data source: Space-Track

IRIDIUM 151, 43074 is a payload satellite owned by Iridium (US) in LEO that was launched on Sat, 23 Dec 2017 UTC via an FALCON 9 launch vehicle from the Air Force Western Test Range (AFWTR). Payload-class satellites include a variety of spacecraft equipped with specific instruments for various scientific and technological missions. These include communications satellites like Starlink; space stations such as the ISS; scientific satellites like the Hubble; Earth observation satellites from companies like Planet Labs, Umbra, and HawkEye 360; GPS; miniature CubeSats for education and research; and military/defense satellites.

Loading next visibility...
Identifier
43074, 2017-083E
Orbit
LEO
Country
Flag of USUS
Related business
Manufacturer
OATK SSG Gilbert
Mission
Operational Commercial Communications
Bus & Motor
ELITEBUS, Unknown motor
Mass
860 kg wet, 700 kg dry
Launch date (UTC)
2017-12-23 (8 years ago)
Launch vehicle
FALCON 9
Launch site
Air Force Western Test Range (AFWTR)
Object type
Payload
Rocket body
Debris
Shape & HBR
Trap Box + 2 Pan, 4.7 m
Radar Cross Section
14.423 m², Large (>1 m²)

Expand to show TLE details & history
Last TLE update: 1 day ago

TLE from 1 day ago
0 IRIDIUM 151
1 43074U 17083E   25260.99091509 -.00000020  00000-0 -14279-4 0  9995
2 43074  86.3908  75.8405 0002129  84.0198 276.1240 14.34217359405120
Epoch: 2025-09-17T23:46Z
TLE epoch observation values (Epoch: 2025-09-17T23:46:55.063Z)
Latitude
-0.00008°
Longitude
81.95214°
Altitude
780.557 km
Speed
7.464 km/s
True Right ascension
05h 03m 21s
True Declination
0° 00' 00"
Sunlit
Object was in daylight at epoch
Visualization orbit readout
Latitude
Unknown
Longitude
Unknown
Altitude
Unknown
Speed
Unknown
Apparent Right ascension
Unknown
Apparent Declination
Unknown
Sunlit
N/A
Visualization observer readout
Local Sidereal Time
20:11:14
Azimuth
Unknown
Elevation
Unknown
Doppler factor
Unknown
Orbital elements
Apogee altitude
776.156 km
Perigee altitude
773.11 km
Semi-major axis
7,152.77 km
Eccentricity
0.00021
Inclination
86.3908°
RAAN
75.8405°
Arg. of periapsis
84.0198°
True anomaly
276.09974°
Mean anomaly
276.124°
Eccentric anomaly
276.11187°
Mean motion
3.58783 °/min
Orbital period
100.34 mins
BSTAR
-0.000014279
Loading maneuver chart data...
Computing Atmospheric mass density...
Loading historical data...
Loading historical data...
Loading historical data...
Loading historical data...
Loading historical data...
Loading historical data...
Loading historical data...

Documentation

Showing up to 5 results
|